Weather in Zonguldak

Turkey     41°27′03″N   31°47′31″E
temp.,
°C
wind,
m/s
gust,
m/s
humid.,
%
clouds,
%
prec.,
mm/h
press.,
hPa
HPBL,
m
15 april, thu
thu1500:00+11sw4493100 0.4 101545
03:00+10w569434 0.9 101693
06:00+9n009269 0.0 101826
09:00+10ene228957 0.0 101971
12:00+10ne448449 0.0 1019218
15:00+10ne567968 0.0 1018257
18:00+9ne67795 0.0 1018388
21:00+9ne5785100 0.0 1019356
16 april, fri
fri1600:00+9ne458584 0.0 1019294
03:00+9nne3484100 0.1 1018271
06:00+8ne338766 0.2 1019298
09:00+9ne338599 0.2 1021341
12:00+9nne338471 0.0 1021289
15:00+9nne448423 0.0 1021333
18:00+9ne4581100 0.0 1021353
21:00+9ene5685100 0.0 1022317
17 april, sat
sat1700:00+9ene4683100 0.0 1021285
03:00+9ene4683100 0.0 1020237
06:00+9ene5785100 0.0 1019253
09:00+9ene7889100 0.2 1020349
12:00+10ene5591100 0.3 1019189
15:00+10ne5592100 0.4 1017100
18:00+10ene7995100 0.4 1016126
21:00+11e5695100 0.4 101369
18 april, sun
sun1800:00+12e5792100 0.1 101165
03:00+12e1289100 0.1 101025
06:00+12sw458835 0.0 101143
09:00+12wsw45919 0.0 101397
12:00+11w7892100 0.0 1015222
15:00+11w3492100 0.0 1015101
18:00+11sse1194100 0.0 101438
21:00+12ssw1196100 1.3 101512
19 april, mon
mon1900:00+12e3395100 0.4 101516
03:00+13ese4590100 0.4 101235
06:00+14ese338289 0.0 100916
09:00+15e4479100 0.4 100742
12:00+15nnw5680100 0.1 1007192
15:00+16e7777100 0.1 100255
18:00+14e1185100 0.1 100218
21:00+13w4494100 0.4 100333